Starlink 4415

operational
NORAD ID: 53465 Int'l Des: 2022-099 Owner: SPXS Country: US Constellation: starlink
LEOCIRCULARRETROGRADESSO

About Starlink 4415

Description loading...

Live Position

Loading 3D Globe...

Upcoming Passes

Altitude History

Altitude vs Time

uPlot chart will show altitude changes over time

Two-Line Element Set

1 53465U 22099A 25259.09732946 .00192776 00000-0 14076-1 0 9999
2 53465 97.6098 19.2834 0010696 41.5537 318.6500 15.02640824169773
Epoch: Sep 16, 2025 • Age: 10 hours

Current Status

Altitude 566.8 km
Velocity 7.58 km/s
Sub-Earth Point 56.20°N, 28.39°E
Launch Date Aug 12, 2022
Age 3 years
Type internet

Technical Details

Classification Payload
Mass 300.00 kg
Dry Mass 275.00 kg
Total Mass 300.00 kg
Length 0.20 m
Diameter 2.80 m
Span 9.00 m
Shape Box + pan
Manufacturer SPXS
Bus Type Starlink
Phase Status In Orbit
Owner/State SPXS/US

Large Constellations

Loading constellations...